Погода в Макаричах

Россия / Брянская область     53°05′14″N   31°38′21″E
темп.,
°C
ветер,
м/с
пор.,
м/с
влажн.,
%
обл.,
%
осадки,
мм/ч
давл.,
гПа
погр.,
м
29 июня, ср
ср2900:00+21св33876 0.0 101935
03:00+19вюв2292100 0.0 101817
06:00+19в3494100 0.0 1018110
09:00+23вюв3484100 0.0 1019399
12:00+24вюв5676100 0.3 1018629
15:00+24ююв457798 3.6 1018327
18:00+19в3693100 4.1 1018190
21:00+18в369434 4.2 1017135
30 июня, чт
чт3000:00+17в229483 0.3 101818
03:00+16в36978 0.3 1018137
06:00+16вюв36930 0.0 1018173
09:00+20вюв34783 0.0 1019489
12:00+23в33600 0.0 10191071
15:00+25всв23531 0.0 10191897
18:00+24ссв33590 0.0 10181122
21:00+19ссв36780 0.0 1019108
1 июля, пт
пт100:00+16св34770 0.0 102061
03:00+14св33782 0.0 102043
06:00+14св33775 0.0 102158
09:00+20св34620 0.0 1021313
12:00+24ссв34505 0.0 10211030
15:00+25ссв35495 0.0 10211775
18:00+25ссв45596 0.0 10201220
21:00+20ссв3376100 0.0 102129
2 июля, сб
сб200:00+17вюв3383100 0.0 102233
03:00+15ююв359066 0.0 102378
06:00+15ююз248515 0.0 102381
09:00+21юз22697 0.0 1023329
12:00+25сз125956 0.0 1023946
15:00+26ссз2355100 0.0 10221583
18:00+27сз1255100 0.0 10211297
21:00+21св117861 0.1 102111
3 июля, вс
вс300:00+19ююз118346 0.0 102111
03:00+18зюз228672 0.0 102122
06:00+18зюз238431 0.0 102052
09:00+23зюз236510 0.0 1020357
12:00+27юз23545 0.0 10191049
15:00+28юз23475 0.0 10182053
18:00+28ююз345512 0.0 1017663
21:00+22сз477685 0.0 1018199